Location: Gloden
(48.4833°N, 15.3167°E)
Time: 21:10:54
(UTC+00:00)

deb Tansei 3 - Visible Passes

Search period start: 19 September 2021 00:00
Search period end: 29 September 2021 00:00
Orbit: 809 x 3777 km, 65.6° (Epoch: 19 September)

Date Brightness Start Highest point End Pass type
(mag) Time Alt. Az. Time Alt. Az. Time Alt. Az.
19 Sep ? 18:40:13 10° NW 18:55:48 43° WSW 19:15:07 10° SSW visible
20 Sep ? 16:55:54 10° NW 17:12:16 77° WSW 17:34:13 10° SSE visible
20 Sep ? 19:15:53 10° NW 19:29:57 30° W 19:46:41 10° SSW visible
21 Sep ? 17:30:55 10° NW 17:47:17 60° WSW 18:08:22 10° S visible
21 Sep ? 19:52:31 10° NW 20:03:37 20° W 20:16:12 10° SW visible
22 Sep ? 18:06:07 10° NW 18:21:55 45° WSW 18:41:26 10° SSW visible
22 Sep ? 20:33:29 10° WNW 20:36:44 11° W 20:40:05 10° W visible
23 Sep ? 18:41:44 10° NW 18:56:06 32° W 19:13:10 10° SSW visible
24 Sep ? 16:56:51 10° NW 17:13:21 62° WSW 17:34:33 10° S visible
24 Sep ? 19:18:14 10° NW 19:29:48 21° W 19:42:57 10° SW visible
25 Sep ? 17:32:02 10° NW 17:48:01 46° WSW 18:07:45 10° S visible
25 Sep ? 19:57:57 10° WNW 20:02:57 12° W 20:08:14 10° W visible
26 Sep ? 18:07:36 10° NW 18:22:14 33° W 18:39:37 10° SSW visible
27 Sep ? 18:43:58 10° NW 18:55:59 22° W 19:09:40 10° SW visible
28 Sep ? 16:57:57 10° NW 17:14:07 48° WSW 17:34:02 10° S visible
28 Sep ? 19:22:57 10° WNW 19:29:11 12° W 19:35:50 10° W visible
